Location: *
(46.1866°S, 178.5290°W)
Time: 20:49:20
(UTC+00:00)

NOAA 11 - Pass Details

Date: 19 May 2021
Orbit: 833 x 850 km, 98.4° (Epoch: 12 June)

Event Time Altitude Azimuth Distance (km) Brightness Sun altitude
Rises 06:18:04 0° 167° (SSE) 3,430 7.1 -18.8°
Reaches altitude 10° 06:20:27 10° 167° (SSE) 2,490 6.4 -19.2°
Maximum altitude 06:26:00 86° 254° (WSW) 860 4.2 -20.2°
Drops below altitude 10° 06:31:30 10° 342° (NNW) 2,470 6.9 -21.1°
Sets 06:33:51 0° 342° (NNW) 3,400 7.7 -21.5°
